CAPE
0 0 0 0 1 0 0 0 2 3 3 4 3 1 1 0 0 0 0 0 1 1
0 0 1 4 3 1 0 1 2 5 4 4 3 4 5 1 0 1 0 0 0 0
0 0 0 1 2 3 2 2 2 2 4 4 4 5 6 5 4 3 0 0 0 1
0 0 0 1 1 2 2 3 3 2 5 3 4 6 6 4 3 5 5 7 6 4
0 0 0 0 0 1 1 2 3 3 3 5 0 2 2 0 2 2 3 5 5 7
0 0 0 0 0 0 1 1 1 2 3 2 3 4 2 6 3 4 4 1 5 6
0 0 1 1 1 0 0 1 2 4 3 1 2 4 6 8 6 4 3 4 2 3
0 1 0 1 2 1 0 1 1 8 4 0 4 6 5 9 5 2 1 2 2 2
0 0 0 1 3 2 1 3 4 9 7 4 3 8 7 12 5 1 3 3 1 1
0 1 0 3 7 4 1 3 2 1 8 8 5 1 4 8 2 1 3 5 3 3
0 0 1 1 2 2 2 2 0 1 5 1 5 0 3 6 3 2 1 3 2 4
0 0 3 2 2 0 5 2 0 0 2 1 3 0 1 4 2 2 1 2 2 4
0 1 1 4 2 6 8 2 1 1 6 3 5 4 0 3 2 1 1 1 1 4
0 1 2 4 8 8 6 4 2 1 1 4 7 6 0 2 2 1 1 2 2 1
CIN
0 0 0 0 -1 0 0 0 -1 -2 -1 -1 -1 -1 0 0 0 0 0 0 0 0
0 -1 -2 -1 -1 -2 -1 -2 -1 -2 0 0 -1 -1 -1 -1 -2 0 0 0 0 0
0 0 -1 -1 -1 -1 -2 -1 -1 0 -1 -1 0 -1 0 -1 -1 -1 -1 0 0 0
0 0 -1 -1 -2 -2 -1 -1 0 -1 0 -1 0 0 0 0 0 0 0 -1 0 0
0 0 0 0 0 -2 -1 -2 -1 -1 -1 -1 0 0 0 0 0 0 0 0 0 0
0 0 -1 -1 -2 -2 -2 -1 -1 -1 -1 -1 0 0 0 0 0 0 0 0 0 0
0 -2 -2 -1 -2 -1 -1 -1 -1 0 -1 -1 0 0 0 0 0 0 0 0 0 0
-1 -2 -1 -2 -2 -2 0 -1 -1 0 -1 0 0 0 0 0 0 0 0 0 0 0
0 -1 0 -1 -1 -2 -1 -2 -1 0 0 -1 0 0 0 0 0 0 0 0 0 0
0 -2 -1 -1 -1 -2 -2 -2 -2 -3 -1 -1 0 -1 0 0 0 0 0 0 0 0
0 -1 -2 -1 -2 -1 -2 -2 -2 -2 -1 -1 0 0 0 0 0 0 0 0 0 0
-2 -2 -2 -2 -2 0 -2 -2 -1 -1 -1 -2 0 0 0 0 0 0 0 0 0 0
0 -2 -1 -2 -1 -2 -1 -3 -2 -2 -2 -1 0 -1 0 0 0 0 0 0 0 0
0 -2 -2 -2 0 -3 -1 -2 -2 -2 -2 0 0 0 0 0 0 0 0 0 0 0
Wind_Speed
34 36 36 38 39 39 41 41 44 44 45 46 46 47 47 48 48 48 47 49 48 48
33 35 36 37 38 39 40 42 43 45 46 46 47 48 49 50 51 51 51 50 50 49
34 35 36 37 39 40 41 42 43 44 45 46 46 47 48 49 50 53 53 53 53 52
34 36 37 38 39 41 42 43 44 44 46 47 48 48 49 50 50 50 51 52 55 57
35 36 37 39 40 41 42 43 44 45 46 47 48 50 51 52 51 52 53 55 54 55
35 36 37 39 40 42 43 43 45 46 48 49 50 51 51 50 54 55 56 57 56 54
34 35 37 39 40 42 43 44 44 46 47 48 51 52 53 56 57 58 58 58 58 58
33 35 37 39 40 42 43 44 45 46 48 49 50 52 57 59 61 62 62 59 58 56
33 35 37 40 41 43 44 45 45 46 48 50 50 54 60 62 62 61 60 59 56 54
34 35 37 40 42 44 45 45 46 47 48 50 52 57 61 62 59 58 57 57 57 58
35 36 37 39 40 42 43 45 46 47 48 49 51 57 61 62 56 57 57 54 53 54
35 36 37 39 40 40 43 44 45 45 47 49 50 56 60 59 56 57 55 52 48 47
35 36 36 39 39 39 42 42 44 45 45 46 49 52 58 56 53 53 53 49 45 43
35 35 35 38 36 38 39 41 43 44 45 45 46 47 55 54 53 50 48 46 42 39
Wind_Direction
335 333 330 328 326 323 320 318 316 315 312 309 307 305 303 300 297 296 295 292 291 288
336 337 335 334 332 329 327 323 321 318 316 313 310 307 304 300 297 295 293 291 289 287
336 336 336 337 335 335 332 330 327 324 322 319 317 313 309 304 300 295 292 290 288 286
336 335 335 334 334 334 334 334 331 329 324 321 319 317 312 308 304 299 295 292 289 284
336 336 335 334 334 334 334 333 332 332 329 325 321 318 314 310 306 302 298 295 289 286
339 338 337 337 336 334 333 333 333 332 330 329 326 321 317 314 309 303 299 295 291 286
341 341 339 338 338 336 335 333 333 333 332 330 331 328 322 316 311 306 301 296 290 285
342 342 341 340 339 339 338 337 335 334 333 332 330 332 327 320 314 308 302 296 291 285
343 343 342 340 339 338 337 336 337 335 334 334 334 331 329 325 320 314 306 299 293 287
344 342 343 341 339 339 339 339 339 338 335 334 335 334 331 327 327 320 311 302 295 288
344 343 345 344 344 344 342 341 341 341 340 338 337 336 334 332 331 326 318 310 303 294
345 345 346 346 346 345 343 342 342 343 342 341 340 338 338 335 331 331 326 318 310 300
345 345 346 346 347 347 345 344 343 342 346 346 343 345 343 337 340 334 335 335 327 315
347 347 348 349 349 350 349 348 347 346 346 349 350 353 349 341 348 337 339 343 340 339